www.pogodaiklimat.ru

Погода и климат >> Архив погоды >> Италия >> Капо Беллависто


ПОГОДА на Капо Беллависто

  • Прогноз погоды на Капо Беллависто
  • Монитор погоды на Капо Беллависто

АРХИВ ПОГОДЫ на Капо Беллависто

Время (UTC), дата Ветер
(напр.,м/с)
 
Видим.   Явления Облачность Т
(С)
Тd
(С)
f
(%)
Тe
(С)
Тes
(С)
Комфортность P
(гПа)
Po
(гПа)
Тmin
(С)
Tmax
(С)
R
(мм)
R24
(мм)
S
(см)
10 13.06 В 5 30 км ясно +24.4 +17.4 65 +28 +38 душно 1015.6 998.3
11 13.06 ЮВ 6 30 км ясно +26.0 +18.2 62 +31 +39 очень
душно
1015.5 998.4
12 13.06 ЮВ 4 20 км ясно +26.0 +17.9 61 +30 +44 душно 1015.7 998.5
13 13.06 ЮВ 4 20 км ясно +25.8 +18.0 62 +30 +42 душно 1015.6 998.5
14 13.06 Ю 3 20 км ясно +25.8 +17.7 61 +30 +43 душно 1015.6 998.5
15 13.06 ЮВ 3 20 км ясно +21.8 +14.2 62 +25 +34 комфорт 1015.7 998.3
16 13.06 Ю 3 20 км ясно +24.0 +17.7 68 +28 +33 душно 1015.5 998.3
17 13.06 Ю 2 20 км ясно +23.8 +12.8 50 +26 +28 жарко 1015.3 998.0
18 13.06 Ю 3 20 км ясно +23.2 +7.3 36 +24 +24 комфорт 1015.3 998.0 +26.2
19 13.06 СЗ 2 20 км ясно +20.8 +15.8 73 +25 +25 комфорт 1015.5 998.0
20 13.06 СЗ 2 20 км ясно +20.6 +9.2 48 +23 +23 комфорт 1015.5 998.0
21 13.06 СЗ 2 20 км ясно +20.4 +12.4 60 +23 +23 комфорт 1015.6 998.1
22 13.06 СЗ 2 20 км ясно +20.2 +13.4 65 +23 +23 комфорт 1015.5 998.0
23 13.06 З 2 20 км ясно +20.2 +14.6 70 +23 +23 комфорт 1015.5 998.0
00 14.06 СЗ 3 20 км ясно +20.0 +13.5 66 +22 +22 комфорт 1015.6 998.1
01 14.06 С 2 20 км ясно +19.8 +12.1 61 +22 +22 комфорт 1015.6 998.1
02 14.06 СЗ 1 20 км ясно +19.6 +12.6 64 +22 +22 комфорт 1015.5 998.0
03 14.06 З 3 20 км ясно +19.8 +14.0 69 +22 +22 комфорт 1015.6 998.0
04 14.06 СЗ 2 20 км ясно +19.6 +12.4 63 +22 +22 комфорт 1015.6 998.1
05 14.06 СЗ 6 20 км ясно +20.4 +2.3 30 +20 +21 1014.8 997.3
06 14.06 ЮЗ 2 20 км ясно +22.8 -0.7 21 +22 +25 комфорт 1014.4 997.0 +18.2
07 14.06 Ю 2 20 км ясно +24.0 +13.6 52 +26 +33 жарко 1014.3 997.1
08 14.06 ЮВ 4 20 км 8/0
[Ci fib]
+23.2 +18.2 73 +29 +36 душно 1014.5 997.2
09 14.06 ЮВ 3 20 км 9/0
[As trans Ci fib]
+24.6 +18.5 69 +29 +38 душно 1014.3 997.1
10 14.06 Ю 4 20 км 9/0
[As trans Ci fib]
+24.4 +21.0 81 +31 +39 очень
душно
1014.4 997.2
11 14.06 Ю 5 20 км 9/0
[As trans Ci fib]
+24.0 +21.2 84 +30 +38 очень
душно
1014.4 997.1
12 14.06 ЮЗ 6 20 км 10/0
[As trans Ci fib]
+21.6 +20.2 92 +27 +33 душно 1014.5 997.1
13 14.06 Ю 6 20 км 10/0
[As trans Ci fib]
+21.6 +20.2 92 +27 +31 душно 1014.2 996.8
14 14.06 Ю 5 20 км 9/0
[Ac As Ci fib]
+22.2 +19.9 87 +28 +32 душно 1013.4 996.0
15 14.06 ЮЗ 7 20 км 9/0 2000 м
[Ac As Ci fib]
+22.0 +19.2 84 +27 +29 душно 1013.4 996.0
16 14.06 Ю 7 20 км 8/0
[As trans Ci fib]
+23.0 +18.6 76 +29 +30 очень
душно
1013.3 996.0
17 14.06 ЮЗ 9 20 км 8/0
[As trans Ci fib]
+22.2 +18.7 81 +28 +28 душно 1013.4 996.0
18 14.06 ЮЗ 7 20 км 5/0
[Ac trans Ci fib]
+22.2 +15.5 66 +26 +26 душно 1013.3 996.0 +24.8
19 14.06 ЮЗ 8 20 км 4/0
[Ac trans]
+21.8 +17.7 78 +26 +26 душно 1013.3 996.0
20 14.06 ЮЗ 8 20 км 4/0
[Ac trans]
+21.4 +19.1 87 +26 +26 душно 1013.4 996.0
21 14.06 Ю 6 10 км 3/0 2000 м
[Ac trans]
+21.6 +19.3 87 +27 +27 душно 1013.6 996.2
22 14.06 З 2 10 км 1/0
[Ac trans]
+21.4 +21.4 100 +27 +27 душно 1013.5 996.1
23 14.06 С 4 10 км ясно +22.0 +17.5 76 +27 +27 душно 1013.5 996.1
00 15.06 СВ 8 20 км ясно +20.4 +19.2 93 +24 +24 комфорт 1013.6 996.1
01 15.06 В 8 20 км ясно +20.0 +17.3 84 +22 +22 комфорт 1013.6 996.1
02 15.06 В 4 20 км ясно +20.0 +18.2 89 +23 +23 комфорт 1013.6 996.1
03 15.06 СВ 6 20 км 3/0 2000 м
[Ac trans]
+19.6 +17.0 85 +21 +21 комфорт 1013.9 996.3
04 15.06 СВ 2 4000 м дымка 3/0
[Ac trans]
+19.2 +18.3 95 +22 +22 комфорт 1014.5 996.9
05 15.06 З 3 4000 м дымка 3/0
[Ac trans]
+18.8 +17.9 95 +20 +21 1015.1 997.5
06 15.06 З 2 20 км 3/0
[Ci fib]
+18.8 +16.0 84 +20 +23 1015.1 997.5 +18.8
07 15.06 СЗ 2 20 км 3/0
[Ci fib]
+21.6 +17.4 77 +26 +33 душно 1014.9 997.4
08 15.06 В 2 10 км 4/0
[Ci fib]
+24.6 +19.0 71 +30 +40 очень
душно
1015.5 998.3
09 15.06 ЮВ 4 10 км 4/1 900 м
[Cu hum Ci fib]
+26.6 +17.9 59 +31 +41 душно 1016.1 998.9
10 15.06 Ю 3 10 км 3/1 900 м
[Cu hum Ci fib]
+27.0 +18.3 59 +32 +46 очень
душно
1016.2 999.0
11 15.06 Ю 3 10 км 1/1 900 м
[Cu hum Ci fib]
+27.4 +19.0 60 +33 +49 очень
душно
1016.0 998.9
12 15.06 ЮВ 3 10 км 1/1 900 м
[Cu hum Ci fib]
+28.6 +18.4 54 +33 +48 очень
душно
1015.8 998.7
13 15.06 Ю 4 10 км 3/1 900 м
[Cu hum Ci fib]
+27.2 +17.1 54 +31 +42 душно 1015.5 998.4
14 15.06 В 3 14 км 5/1 750 м
[Cu hum Ci fib]
+26.0 +17.7 60 +30 +40 душно 1015.5 998.3
15 15.06 ЮВ 4 10 км 8/1 750 м
[Cu hum As trans Ci fib]
+26.0 +18.4 63 +31 +34 очень
душно
1015.7 998.5
16 15.06 ЮВ 4 14 км 8/1 750 м
[Cu hum As trans Ci fib]
+25.6 +19.0 67 +31 +33 очень
душно
1015.7 998.5
17 15.06 Ю 2 10 км 6/1 750 м
[Cu hum Ci fib]
+24.6 +18.3 68 +29 +31 душно 1015.7 998.5
18 15.06 ЮЗ 2 10 км 4/1 1200 м
[Cu hum Ci fib]
+22.0 +18.0 78 +27 +27 душно 1016.0 998.6 +28.6
19 15.06 ЮЗ 5 14 км 3/1 1200 м
[Cu hum Ci fib]
+20.8 +18.6 87 +25 +25 комфорт 1016.0 998.5
20 15.06 ЮЗ 6 10 км ясно +20.2 +18.2 88 +23 +23 комфорт 1016.1 998.6
21 15.06 ЮЗ 5 10 км ясно +20.0 +18.3 90 +23 +23 комфорт 1016.3 998.7
22 15.06 З 3 10 км ясно +20.0 +17.6 86 +23 +23 комфорт 1016.2 998.7
23 15.06 СЗ 2 10 км ясно +20.6 +17.4 82 +25 +25 комфорт 1016.2 998.7
00 16.06 С 2 10 км ясно +20.6 +18.0 85 +25 +25 комфорт 1015.9 998.4
01 16.06 СВ 3 10 км ясно +20.0 +18.0 88 +23 +23 комфорт 1015.6 998.0
02 16.06 СВ 3 18 км ясно +20.0 +17.8 87 +23 +23 комфорт 1015.2 997.6
03 16.06 В 6 18 км ясно +19.8 +18.5 92 +22 +22 комфорт 1015.2 997.7
04 16.06 СВ 5 10 км 1/1 1200 м
[Cu hum]
+19.6 +18.6 94 +22 +22 комфорт 1015.4 997.9
05 16.06 С 4 10 км 3/3 900 м
[Cu hum]
+19.6 +16.8 84 +22 +22 комфорт 1015.8 998.3
06 16.06 С 2 10 км 1/0 1500 м
[Ac trans]
+22.0 +18.0 78 +27 +30 душно 1015.8 998.4 +19.4
07 16.06 В 4 18 км 3/1 150 м
[St Ac trans]
+24.4 +16.9 63 +28 +32 душно 1015.7 998.5
08 16.06 В 4 25 км 1/1 600 м
[St]
+24.6 +18.5 69 +29 +37 душно 1016.4 999.1
09 16.06 ЮВ 4 20 км 1/1 600 м
[St]
+26.0 +18.8 65 +31 +41 очень
душно
1016.2 999.1
10 16.06 ЮВ 4 20 км 1/1 600 м
[St]
+27.0 +17.6 56 +31 +44 душно 1016.2 999.0
11 16.06 ЮВ 4 20 км 4/4 600 м
[St]
+28.2 +18.4 55 +33 +42 очень
душно
1016.1 999.1
12 16.06 ЮЗ 3 20 км 3/3 600 м
[St]
+28.0 +18.8 57 +33 +46 очень
душно
1016.2 999.1
13 16.06 ЮВ 3 20 км 4/4 600 м
[St]
+27.0 +19.3 63 +33 +41 очень
душно
1016.1 999.0
14 16.06 Ю 3 20 км 4/1 600 м
[St Ci fib]
+26.8 +18.4 60 +32 +42 очень
душно
1016.2 999.1
15 16.06 ЮЗ 3 20 км 4/1 600 м
[St Ci fib]
+26.6 +19.4 65 +32 +40 очень
душно
1016.0 998.9
16 16.06 С 3 20 км 4/1 600 м
[St Ci fib]
+26.0 +19.1 66 +31 +35 очень
душно
1015.6 998.4
17 16.06 Ю 3 20 км 6/3 600 м
[St Ci sp]
+24.0 +19.4 75 +29 +30 душно 1015.4 998.1
18 16.06 Ю 2 20 км 9/6 600 м
[Sc Ci sp]
+23.0 +20.1 84 +30 +30 очень
душно
1015.5 998.1 +28.4
19 16.06 Ю 2 20 км 9/6 600 м
[Sc Ci sp]
+22.0 +19.7 87 +28 +28 душно 1015.4 998.0
20 16.06 Ю 4 20 км 9/6 600 м
[Sc Ci sp]
+21.4 +20.0 92 +27 +27 душно 1015.3 997.9
21 16.06 Ю 4 20 км 9/6 600 м
[Sc Ci sp]
+21.0 +19.8 93 +26 +26 душно 1015.2 997.8
22 16.06 ЮЗ 3 20 км 9/6 600 м
[Sc Ci sp]
+20.8 +19.7 93 +26 +26 душно 1015.3 997.9
23 16.06 ЮЗ 3 20 км 8/6 600 м
[Sc Ci sp]
+20.8 +19.7 93 +26 +26 душно 1015.2 997.8
00 17.06 ЮЗ 3 20 км 3/3 600 м
[Sc]
+20.2 +19.3 95 +24 +24 комфорт 1015.4 997.9
01 17.06 З 3 20 км 4/1 600 м
[St Ci sp]
+20.0 +19.4 96 +24 +24 комфорт 1015.2 997.7
02 17.06 СЗ 3 10 км 4/1 600 м
[St Ci sp]
+20.0 +19.4 96 +24 +24 комфорт 1014.7 997.2
03 17.06 СЗ 4 20 км 5/1 600 м
[St Ci sp]
+19.0 +14.6 76 +20 +20 1014.6 997.0
04 17.06 СВ 5 25 км 5/1 600 м
[St Ci sp]
+19.2 +17.7 91 +21 +21 комфорт 1014.6 997.0
05 17.06 СВ 4 50 км 5/3 600 м
[St Ci fib]
+19.2 +18.0 93 +21 +21 комфорт 1014.6 997.0
06 17.06 СВ 6 20 км 8/5 600 м
[Sc Ci sp]
+20.0 +17.3 84 +23 +23 комфорт 1014.5 997.0 +19.0
07 17.06 СВ 5 20 км 5/4 600 м
[Sc Ci fib]
+20.0 +14.4 70 +22 +24 комфорт 1014.6 997.1
08 17.06 ЮВ 4 10 км 9/3 600 м
[St Ci fib]
+23.8 +17.5 68 +28 +32 душно 1014.8 997.5
09 17.06 В 6 10 км 9/3 600 м
[Sc Ci fib]
+23.0 +17.5 71 +28 +32 душно 1015.2 997.9
10 17.06 В 5 20 км 9/3 300 м
[Sc Ci fib]
+24.8 +17.3 63 +29 +35 душно 1015.2 997.9
11 17.06 В 4 10 км 8/1 300 м
[Cu med, cong Ci fib]
+25.0 +18.7 68 +30 +41 душно 1014.9 997.7
12 17.06 ЮВ 5 10 км 6/1 300 м
[St Ci fib]
+25.6 +18.5 65 +30 +40 душно 1014.9 997.7
13 17.06 ЮВ 4 10 км 6/1 300 м
[St Ci fib]
+26.6 +18.5 61 +31 +41 душно 1014.7 997.6
14 17.06 ЮВ 4 10 км 6/1 300 м
[St Ci fib]
+26.6 +18.2 60 +31 +40 душно 1014.4 997.3
15 17.06 ЮВ 3 10 км 9/1 300 м
[St Ci fib]
+26.4 +18.5 62 +31 +37 душно 1013.9 996.8
16 17.06 Ю 2 10 км 9/1 300 м
[St Ci fib]
+26.0 +18.7 64 +31 +35 очень
душно
1013.6 996.5
17 17.06 ЮВ 3 18 км 9/1 300 м
[St Ac trans Ci fib]
+25.4 +18.1 64 +30 +31 душно 1013.2 996.1
18 17.06 Ю 2 10 км 6/1 300 м
[St Ac trans Ci fib]
+23.4 +18.3 73 +29 +30 душно 1013.5 996.2 +26.6
19 17.06 ЮЗ 4 18 км 5/1 300 м
[St Ac trans Ci fib]
+20.8 +18.7 88 +25 +25 комфорт 1013.8 996.3
20 17.06 ЮЗ 4 20 км 4/1 300 м
[St Ci fib]
+20.0 +18.0 88 +23 +23 комфорт 1014.2 996.7
21 17.06 Ю 2 20 км 4/1 150 м
[St Ci fib]
+20.0 +18.3 90 +24 +24 комфорт 1014.3 996.8
22 17.06 ЮЗ 3 20 км 4/1 150 м
[St Ci fib]
+19.8 +17.6 87 +23 +23 комфорт 1014.7 997.2
23 17.06 СЗ 3 20 км 4/0
[Ci fib]
+19.0 +17.5 91 +21 +21 комфорт 1014.8 997.2
00 18.06 СЗ 5 20 км 3/0
[Ci fib]
+18.8 +15.9 83 +20 +20 1014.4 996.8
01 18.06 СЗ 4 20 км 3/0
[Ci fib]
+19.0 +15.1 78 +20 +20 1014.2 996.7
02 18.06 СЗ 4 20 км ясно +19.0 +11.6 62 +20 +20 1014.0 996.5
03 18.06 СЗ 7 20 км ясно +19.0 +9.8 55 +19 +19 1013.8 996.2
04 18.06 СЗ 5 20 км ясно +18.8 +2.2 33 +19 +19 1013.9 996.3
05 18.06 СЗ 3 20 км ясно +19.0 +0.1 28 +19 +20 1013.8 996.3
06 18.06 З 3 20 км ясно +21.0 +0.2 25 +22 +24 комфорт 1014.0 996.6 +18.0
07 18.06 ЮЗ 2 30 км ясно +23.6 +6.4 33 +24 +30 комфорт 1014.2 996.9
08 18.06 ЮЗ 3 20 км ясно +24.0 +7.6 35 +24 +34 комфорт 1014.5 997.3
09 18.06 ЮВ 4 20 км ясно +26.0 +18.4 63 +31 +42 очень
душно
1013.4 996.3
10 18.06 З 4 20 км ясно +28.0 +18.4 56 +33 +47 очень
душно
1014.7 997.7
11 18.06 ЮВ 3 20 км ясно +28.0 +17.8 54 +32 +51 опасность
солнечного
удара
1014.8 997.7
12 18.06 Ю 2 20 км ясно +28.4 +17.0 50 +32 +52 опасность
солнечного
удара
1014.7 997.7
13 18.06 Ю 3 20 км ясно +27.8 +17.4 53 +32 +46 душно 1014.7 997.6
14 18.06 Ю 5 30 км ясно +24.0 +17.3 66 +28 +35 душно 1014.9 997.6
15 18.06 Ю 6 20 км ясно +24.2 +18.4 70 +29 +33 душно 1014.7 997.5
16 18.06 ЮЗ 6 20 км ясно +23.2 +16.5 66 +28 +30 душно 1014.5 997.2
17 18.06 ЮЗ 6 20 км ясно +22.6 +13.7 57 +26 +27 жарко 1014.5 997.1
18 18.06 ЮЗ 5 20 км ясно +22.2 +9.4 44 +24 +24 комфорт 1014.3 997.0 +28.8
19 18.06 ЮЗ 3 20 км ясно +23.0 +10.1 44 +25 +25 комфорт 1014.2 996.9
20 18.06 ЮЗ 2 20 км ясно +22.8 +6.1 34 +23 +23 комфорт 1014.3 996.9
21 18.06 ЮЗ 2 20 км ясно +22.6 +9.1 42 +24 +24 комфорт 1014.2 996.9
22 18.06 ЮЗ 2 20 км ясно +22.6 +10.1 45 +24 +24 комфорт 1014.3 997.0
23 18.06 СЗ 4 20 км ясно +21.6 +9.8 47 +23 +23 комфорт 1014.3 996.9
00 19.06 СЗ 3 20 км ясно +21.4 +10.3 49 +23 +23 комфорт 1014.3 996.9
01 19.06 СЗ 3 20 км ясно +21.2 +8.5 44 +22 +22 комфорт 1014.3 996.9
02 19.06 СЗ 4 20 км ясно +21.2 +10.4 50 +23 +23 комфорт 1014.2 996.8
03 19.06 СЗ 4 20 км ясно +21.2 +9.5 47 +23 +23 комфорт 1014.2 996.8
04 19.06 СЗ 2 20 км ясно +21.0 +9.6 48 +23 +23 комфорт 1014.3 996.9
05 19.06 З 3 30 км ясно +20.0 +9.0 49 +22 +22 комфорт 1014.2 996.7
06 19.06 СЗ 3 20 км ясно +21.0 +10.8 52 +23 +26 комфорт 1014.2 996.7 +19.8
07 19.06 СЗ 3 30 км ясно +23.0 +12.6 52 +26 +31 жарко 1014.0 996.7
08 19.06 В 3 20 км ясно +25.2 +14.0 50 +28 +37 жарко 1014.0 996.8
09 19.06 В 3 20 км ясно +26.2 +18.7 63 +31 +44 очень
душно
1014.3 997.2
10 19.06 В 4 20 км 3/0
[Ci fib]
+26.8 +15.7 51 +30 +43 душно 1014.4 997.3
11 19.06 В 4 30 км 5/0
[Ci fib]
+28.4 +18.9 56 +34 +47 очень
душно
1014.3 997.3
12 19.06 ЮВ 5 20 км 6/0
[Ci fib]
+28.6 +19.2 57 +34 +44 очень
душно
1014.3 997.3
13 19.06 З 2 30 км 5/0
[Ci fib]
+28.8 +17.7 51 +33 +49 очень
душно
1014.3 997.3
14 19.06 ЮВ 2 20 км 4/0
[Ci fib]
+29.2 +18.2 52 +34 +47 очень
душно
1014.2 997.2
15 19.06 Ю 3 20 км 3/0
[Ci fib]
+28.0 +17.8 54 +32 +41 душно 1014.1 997.1
16 19.06 Ю 6 30 км 1/0
[Ci fib]
+26.6 +18.8 62 +32 +34 очень
душно
1014.0 996.8
17 19.06 Ю 6 20 км ясно +25.4 +20.6 75 +32 +33 очень
душно
1013.9 996.7
18 19.06 Ю 2 20 км ясно +24.4 +19.5 74 +30 +30 очень
душно
1013.7 996.4 +29.2
19 19.06 ЮЗ 4 25 км ясно +23.8 +12.7 50 +26 +26 жарко 1013.6 996.4
20 19.06 СЗ 5 20 км 1/0
[Ci fib]
+22.8 +17.1 70 +28 +28 душно 1013.6 996.3
21 19.06 СЗ 3 20 км ясно +21.8 +16.7 73 +26 +26 душно 1013.8 996.4
22 19.06 СВ 5 20 км ясно +21.2 +18.6 85 +26 +26 душно 1013.9 996.4
23 19.06 СВ 5 20 км ясно +20.8 +18.4 86 +25 +25 комфорт 1013.9 996.4
00 20.06 С 2 20 км ясно +20.2 +15.6 75 +23 +23 комфорт 1014.0 996.5
01 20.06 С 2 20 км ясно +20.2 +13.2 64 +23 +23 комфорт 1013.9 996.4
03 20.06 З 4 20 км ясно +21.8 +8.8 43 +23 +23 комфорт 1013.4 996.0
05 20.06 СЗ 3 20 км 3/0
[Ci fib]
+20.6 +7.6 43 +22 +23 комфорт 1013.4 995.9
06 20.06 ЮЗ 1 20 км 3/0
[Ci fib]
+22.2 +9.8 45 +24 +27 комфорт 1013.6 996.2 +20.2
07 20.06 ЮЗ 2 30 км 5/0
[Ci fib]
+23.4 +9.7 42 +25 +31 комфорт 1013.5 996.2
08 20.06 ЮВ 3 30 км 6/0
[Ci sp]
+25.2 +19.4 70 +30 +39 душно 1013.1 995.9

 

Местоположение метеостанции Капо Беллависто (Италия): широта 39.93 долгота 9.72 высота над уровнем моря 150 м.

В архиве по умолчанию представлена погода на Капо Беллависто за последнюю неделю. Архивные данные за месяц целиком и за предыдущие месяцы, начиная с января 2011 года, Вы можете получить, выбрав интересующий диапазон дат из раскрывающегося списка и нажав кнопку "Ввод!".


*Определитесь, кто Вы:
робот инопланетянин человек

Внимание! Время в таблицах - всемирное. Для получения местного времени необходимо прибавить поправку, которая равна 1 ч.

Смотрите также архив погоды в соседних городах и на ближайших метеорологических станциях:

Погода в Дечимоманну (Италия) (91 км)
Погода на Капо Карбонара (Италия) (94 км)
Погода на Капо Фраска (Италия) (109 км)
Погода в Ольвии (Италия) (109 км)
Погода в Альгеро (Италия) (145 км)
Погода на Капо Кацция (Италия) (150 км)
Погода на Мысе Пертюзато (Франция) (167 км)
Погода в Фигари (Франция) (182 км)
Погода в Соленцаре (Франция) (223 км)
Погода в Аяччо (Франция) (234 км)

Пояснения к столбцам:

Ветер - указаны скорость ветра в м/с - средняя за 10 мин, порывы в срок и между сроками (в фигурных скобках) и направление, откуда дует ветер: С - северный, СВ - северо-восточный, В - восточный, ЮВ - юго-восточный, Ю - южный, ЮЗ - юго-западный, З - западный, СЗ - северо-западный.
Видимость - горизонтальная дальность видимости в метрах или километрах. При видимости от 1 до 10 км при отсутствии осадков обычно наблюдается дымка, при ухудшении видимости до 1 км и менее - туман. В сухую погоду видимость может ухудшаться дымом, пылью или мглою.
Явления - указаны атмосферные явления, наблюдавшиеся в срок или в последний час перед сроком; фигурными скобками обозначены явления, наблюдавшиеся между сроками (за 1-3 часа до срока); квадратными скобками обозначены град или гололедные отложения с указанием их диаметра в мм.
Облачность - указаны через наклонную черту общая и нижняя облачность в баллах и высота нижней границы облаков в метрах; квадратными скобками обозначены формы облаков: Ci - перистые, Cs - перисто-слоистые, Cc - перисто-кучевые, Ac - высококучевые, As - высокослоистые, Sc - слоисто-кучевые, Ns - слоисто-дождевые, Cu - кучевые, Cb - кучево-дождевые. Подробнее классификацию облаков см. в Атласе облаков (PDF).
T - Температура воздуха - температура, измеренная на высоте 2 м над землей.
Td - Температура точки росы - температура, при понижении до которой содержащийся в воздухе водяной пар достигнет насыщения.
f - Относительная влажность воздуха - влажноcть воздуха, измеренная на высоте 2 м над землей.
Te - Эффективная температура - температура, которую ощущает одетый по сезону человек в тени. Характеристика душности погоды. При расчете учитывается влияние влажности воздуха и скорости ветра на теплоощущения человека.
Tes - Эффективная температура на солнце - температура, которую ощущает человек, с поправкой на солнечный нагрев. Характеристика знойности погоды. Зависит от высоты солнца над горизонтом, облачности и скорости ветра. Ночью, в пасмурную погоду, а также при ветре 12 м/с и более поправка равна нулю.
P - Атмосферное давление - приведенное к уровню моря атмосферное давление.
Po - Атмосферное давление - измеренное на уровне метеостанции атмосферное давление.
Tmin - Минимальная температура - минимум температуры воздуха на высоте 2 м над землей.
Tmax - Максимальная температура - максимум температуры воздуха на высоте 2 м над землей.
R - Количество осадков - Количество выпавших осадков за период времени, мм. При наведении курсора мыши на число - период времени, за который выпало указанное количество осадков.
R24 - Количество осадков - Количество выпавших осадков за 24 часа, мм.
S - Снежный покров - Высота снежного покрова, см. При наведении курсора мыши на число - состояние снежного покрова и степень покрытия местности в баллах.